| time (UTC) | temp C | wind direction | speed KPH | gust KPH | rain 1hr cm | rain 24hr cm | rain mn cm | humidity % | barometer mb |
| 20260510213003 | 21 | 10 | 6.4 | 22.5 | 0.00 | 0.00 | 0.00 | 32 | 1019.7 |
| 20260510212503 | 21 | 4 | 6.4 | 22.5 | 0.00 | 0.00 | 0.00 | 32 | 1019.8 |
| 20260510212003 | 21 | 332 | 4.8 | 14.5 | 0.00 | 0.00 | 0.00 | 32 | 1019.7 |
| 20260510211503 | 21 | 324 | 4.8 | 16.1 | 0.00 | 0.00 | 0.00 | 31 | 1019.8 |
| 20260510211024 | 21 | 350 | 6.4 | 24.1 | 0.00 | 0.00 | 0.00 | 29 | 1019.5 |
| 20260510210503 | 21 | 352 | 8.0 | 24.1 | 0.00 | 0.00 | 0.00 | 30 | 1019.7 |
| 20260510210004 | 22 | 335 | 6.4 | 24.1 | 0.00 | 0.00 | 0.00 | 29 | 1019.8 |
| 20260510205503 | 22 | 320 | 6.4 | 16.1 | 0.00 | 0.00 | 0.00 | 32 | 1019.7 |
| 20260510205003 | 22 | 322 | 6.4 | 20.9 | 0.00 | 0.00 | 0.00 | 32 | 1019.8 |
| 20260510204503 | 22 | 335 | 8.0 | 20.9 | 0.00 | 0.00 | 0.00 | 32 | 1019.6 |
| 20260510204024 | 22 | 336 | 8.0 | 20.9 | 0.00 | 0.00 | 0.00 | 28 | 1019.8 |
| 20260510203524 | 22 | 331 | 8.0 | 20.9 | 0.00 | 0.00 | 0.00 | 33 | 1019.8 |
| 20260510203003 | 22 | 341 | 8.0 | 20.9 | 0.00 | 0.00 | 0.00 | 34 | 1019.6 |
| 20260510202503 | 22 | 4 | 6.4 | 16.1 | 0.00 | 0.00 | 0.00 | 31 | 1019.8 |
| 20260510202003 | 22 | 10 | 4.8 | 16.1 | 0.00 | 0.00 | 0.00 | 31 | 1019.6 |
| 20260510201503 | 22 | 327 | 4.8 | 14.5 | 0.00 | 0.00 | 0.00 | 32 | 1019.9 |
| 20260510201003 | 22 | 329 | 3.2 | 12.9 | 0.00 | 0.00 | 0.00 | 29 | 1020.1 |
| 20260510200503 | 22 | 360 | 4.8 | 12.9 | 0.00 | 0.00 | 0.00 | 29 | 1020.0 |
| 20260510200024 | 22 | 333 | 4.8 | 14.5 | 0.00 | 0.00 | 0.00 | 32 | 1020.0 |
| 20260510195524 | 22 | 332 | 6.4 | 14.5 | 0.00 | 0.00 | 0.00 | 33 | 1019.9 |
| 20260510195024 | 22 | 347 | 8.0 | 25.7 | 0.00 | 0.00 | 0.00 | 33 | 1020.1 |
| 20260510194503 | 22 | 336 | 6.4 | 25.7 | 0.00 | 0.00 | 0.00 | 32 | 1019.8 |
| 20260510194024 | 22 | 324 | 6.4 | 25.7 | 0.00 | 0.00 | 0.00 | 32 | 1019.9 |
| 20260510193503 | 22 | 351 | 4.8 | 17.7 | 0.00 | 0.00 | 0.00 | 34 | 1019.6 |
| 20260510193003 | 22 | 338 | 3.2 | 16.1 | 0.00 | 0.00 | 0.00 | 32 | 1019.7 |
| 20260510192503 | 22 | 311 | 4.8 | 16.1 | 0.00 | 0.00 | 0.00 | 31 | 1019.6 |
| 20260510192024 | 22 | 330 | 4.8 | 16.1 | 0.00 | 0.00 | 0.00 | 32 | 1019.7 |
| 20260510191505 | 22 | 354 | 4.8 | 16.1 | 0.00 | 0.00 | 0.00 | 33 | 1019.8 |
| 20260510191003 | 22 | 332 | 4.8 | 17.7 | 0.00 | 0.00 | 0.00 | 30 | 1019.9 |
| 20260510190503 | 22 | 315 | 4.8 | 17.7 | 0.00 | 0.00 | 0.00 | 30 | 1019.7 |
| 20260510190003 | 22 | 283 | 4.8 | 14.5 | 0.00 | 0.00 | 0.00 | 28 | 1019.8 |
| 20260510185503 | 22 | 279 | 4.8 | 14.5 | 0.00 | 0.00 | 0.00 | 33 | 1019.6 |
| 20260510185003 | 22 | 329 | 4.8 | 12.9 | 0.00 | 0.00 | 0.00 | 31 | 1019.6 |
| 20260510184524 | 22 | 338 | 4.8 | 12.9 | 0.00 | 0.00 | 0.00 | 33 | 1019.7 |
| 20260510184003 | 22 | 349 | 4.8 | 12.9 | 0.00 | 0.00 | 0.00 | 32 | 1019.7 |
| 20260510183503 | 21 | 349 | 4.8 | 16.1 | 0.00 | 0.00 | 0.00 | 33 | 1019.8 |
| 20260510183024 | 21 | 326 | 6.4 | 16.1 | 0.00 | 0.00 | 0.00 | 33 | 1019.9 |
| 20260510182503 | 21 | 325 | 6.4 | 17.7 | 0.00 | 0.00 | 0.00 | 29 | 1019.6 |
| 20260510182003 | 21 | 346 | 6.4 | 17.7 | 0.00 | 0.00 | 0.00 | 33 | 1019.9 |
| 20260510181503 | 21 | 7 | 4.8 | 17.7 | 0.00 | 0.00 | 0.00 | 28 | 1019.7 |
| 20260510181024 | 21 | 356 | 4.8 | 16.1 | 0.00 | 0.00 | 0.00 | 30 | 1019.7 |
| 20260510180503 | 21 | 343 | 4.8 | 16.1 | 0.00 | 0.00 | 0.00 | 32 | 1019.9 |
| 20260510180005 | 21 | 333 | 8.0 | 20.9 | 0.00 | 0.00 | 0.00 | 29 | 1020.0 |
| 20260510175503 | 21 | 332 | 8.0 | 20.9 | 0.00 | 0.00 | 0.00 | 27 | 1020.0 |
| 20260510175003 | 21 | 347 | 6.4 | 20.9 | 0.00 | 0.00 | 0.00 | 30 | 1020.0 |
| 20260510174503 | 21 | 344 | 4.8 | 14.5 | 0.00 | 0.00 | 0.00 | 32 | 1019.9 |
| 20260510174003 | 21 | 326 | 6.4 | 17.7 | 0.00 | 0.00 | 0.00 | 33 | 1020.1 |
| 20260510173503 | 21 | 328 | 6.4 | 17.7 | 0.00 | 0.00 | 0.00 | 31 | 1020.1 |
| 20260510173003 | 21 | 319 | 4.8 | 16.1 | 0.00 | 0.00 | 0.00 | 32 | 1020.1 |
| 20260510172503 | 21 | 331 | 3.2 | 16.1 | 0.00 | 0.00 | 0.00 | 35 | 1020.0 |
| 20260510172004 | 21 | 9 | 3.2 | 9.7 | 0.00 | 0.00 | 0.00 | 31 | 1020.1 |
| 20260510171503 | 21 | 13 | 3.2 | 11.3 | 0.00 | 0.00 | 0.00 | 33 | 1020.1 |
| 20260510171024 | 21 | 10 | 3.2 | 11.3 | 0.00 | 0.00 | 0.00 | 32 | 1020.2 |
| 20260510170503 | 21 | 11 | 3.2 | 12.9 | 0.00 | 0.00 | 0.00 | 34 | 1020.0 |
| 20260510170003 | 21 | 358 | 4.8 | 14.5 | 0.00 | 0.00 | 0.00 | 31 | 1020.2 |
| 20260510165524 | 21 | 3 | 4.8 | 14.5 | 0.00 | 0.00 | 0.00 | 32 | 1020.1 |
| 20260510165003 | 21 | 345 | 3.2 | 14.5 | 0.00 | 0.00 | 0.00 | 33 | 1020.2 |
| 20260510164503 | 21 | 326 | 4.8 | 14.5 | 0.00 | 0.00 | 0.00 | 34 | 1020.4 |
| 20260510164003 | 21 | 326 | 4.8 | 14.5 | 0.00 | 0.00 | 0.00 | 29 | 1020.5 |
| 20260510163503 | 20 | 315 | 3.2 | 16.1 | 0.00 | 0.00 | 0.00 | 34 | 1020.4 |
| 20260510163003 | 20 | 342 | 4.8 | 16.1 | 0.00 | 0.00 | 0.00 | 33 | 1020.6 |
| 20260510162524 | 20 | 3 | 4.8 | 14.5 | 0.00 | 0.00 | 0.00 | 34 | 1020.5 |
| 20260510162003 | 20 | 353 | 4.8 | 16.1 | 0.00 | 0.00 | 0.00 | 34 | 1020.5 |
| 20260510161503 | 20 | 334 | 4.8 | 16.1 | 0.00 | 0.00 | 0.00 | 33 | 1020.3 |
| 20260510161003 | 20 | 334 | 4.8 | 16.1 | 0.00 | 0.00 | 0.00 | 34 | 1020.4 |
| 20260510160503 | 20 | 6 | 3.2 | 12.9 | 0.00 | 0.00 | 0.00 | 33 | 1020.2 |
| 20260510160003 | 20 | 11 | 3.2 | 17.7 | 0.00 | 0.00 | 0.00 | 38 | 1020.4 |
| 20260510155503 | 20 | 348 | 4.8 | 17.7 | 0.00 | 0.00 | 0.00 | 36 | 1020.1 |
| 20260510155024 | 20 | 334 | 6.4 | 12.9 | 0.00 | 0.00 | 0.00 | 35 | 1020.2 |
| 20260510154503 | 20 | 352 | 4.8 | 12.9 | 0.00 | 0.00 | 0.00 | 35 | 1020.5 |
| 20260510154003 | 20 | 11 | 4.8 | 12.9 | 0.00 | 0.00 | 0.00 | 36 | 1020.3 |
| 20260510153503 | 20 | 19 | 4.8 | 12.9 | 0.00 | 0.00 | 0.00 | 36 | 1020.4 |
| 20260510153003 | 19 | 12 | 4.8 | 12.9 | 0.00 | 0.00 | 0.00 | 35 | 1020.2 |
| 20260510152524 | 19 | 352 | 4.8 | 16.1 | 0.00 | 0.00 | 0.00 | 39 | 1020.2 |
| 20260510152003 | 19 | 346 | 4.8 | 16.1 | 0.00 | 0.00 | 0.00 | 40 | 1020.3 |
| 20260510151503 | 19 | 350 | 4.8 | 16.1 | 0.00 | 0.00 | 0.00 | 41 | 1020.1 |
| 20260510151003 | 18 | 356 | 4.8 | 16.1 | 0.00 | 0.00 | 0.00 | 40 | 1019.9 |
| 20260510150524 | 18 | 359 | 4.8 | 16.1 | 0.00 | 0.00 | 0.00 | 41 | 1019.8 |
| 20260510150003 | 18 | 356 | 4.8 | 12.9 | 0.00 | 0.00 | 0.00 | 43 | 1019.7 |
| 20260510145524 | 18 | 8 | 4.8 | 12.9 | 0.00 | 0.00 | 0.00 | 43 | 1019.8 |
| 20260510145003 | 18 | 15 | 4.8 | 12.9 | 0.00 | 0.00 | 0.00 | 43 | 1019.8 |
| 20260510144524 | 18 | 15 | 3.2 | 14.5 | 0.00 | 0.00 | 0.00 | 43 | 1019.4 |
| 20260510144003 | 17 | 5 | 4.8 | 16.1 | 0.00 | 0.00 | 0.00 | 45 | 1019.7 |
| 20260510143503 | 17 | 1 | 4.8 | 16.1 | 0.00 | 0.00 | 0.00 | 44 | 1019.2 |
| 20260510143003 | 17 | 16 | 3.2 | 12.9 | 0.00 | 0.00 | 0.00 | 43 | 1019.4 |
| 20260510142503 | 17 | 14 | 3.2 | 11.3 | 0.00 | 0.00 | 0.00 | 48 | 1019.1 |
| 20260510142003 | 17 | 11 | 3.2 | 11.3 | 0.00 | 0.00 | 0.00 | 45 | 1019.3 |
| 20260510141503 | 17 | 13 | 4.8 | 11.3 | 0.00 | 0.00 | 0.00 | 47 | 1019.2 |
| 20260510141024 | 16 | 10 | 3.2 | 11.3 | 0.00 | 0.00 | 0.00 | 48 | 1019.1 |
| 20260510140503 | 16 | 22 | 1.6 | 4.8 | 0.00 | 0.00 | 0.00 | 51 | 1019.2 |
| 20260510140004 | 16 | 17 | 3.2 | 6.4 | 0.00 | 0.00 | 0.00 | 50 | 1018.9 |
| 20260510135503 | 15 | 5 | 3.2 | 11.3 | 0.00 | 0.00 | 0.00 | 52 | 1018.9 |
| 20260510135024 | 15 | 357 | 3.2 | 11.3 | 0.00 | 0.00 | 0.00 | 50 | 1019.2 |
| 20260510134524 | 15 | 4 | 4.8 | 16.1 | 0.00 | 0.00 | 0.00 | 53 | 1019.1 |
| 20260510134003 | 14 | 10 | 4.8 | 16.1 | 0.00 | 0.00 | 0.00 | 51 | 1019.1 |
| 20260510133524 | 13 | 8 | 3.2 | 12.9 | 0.00 | 0.00 | 0.00 | 54 | 1019.3 |
| 20260510133003 | 13 | 1 | 4.8 | 12.9 | 0.00 | 0.00 | 0.00 | 55 | 1019.3 |
| 20260510132503 | 13 | 360 | 4.8 | 11.3 | 0.00 | 0.00 | 0.00 | 55 | 1019.1 |
| 20260510132003 | 12 | 7 | 3.2 | 9.7 | 0.00 | 0.00 | 0.00 | 56 | 1019.4 |
| 20260510131503 | 12 | 7 | 3.2 | 11.3 | 0.00 | 0.00 | 0.00 | 56 | 1019.0 |
| 20260510131003 | 12 | 9 | 3.2 | 11.3 | 0.00 | 0.00 | 0.00 | 57 | 1018.7 |
| 20260510130503 | 12 | 6 | 3.2 | 9.7 | 0.00 | 0.00 | 0.00 | 57 | 1018.7 |
| 20260510130004 | 12 | 5 | 3.2 | 11.3 | 0.00 | 0.00 | 0.00 | 58 | 1018.9 |
| 20260510125503 | 12 | 2 | 4.8 | 11.3 | 0.00 | 0.00 | 0.00 | 60 | 1018.5 |
| 20260510125003 | 11 | 7 | 3.2 | 11.3 | 0.00 | 0.00 | 0.00 | 59 | 1018.2 |
| 20260510124503 | 11 | 12 | 3.2 | 11.3 | 0.00 | 0.00 | 0.00 | 61 | 1018.5 |
| 20260510124003 | 11 | 9 | 3.2 | 11.3 | 0.00 | 0.00 | 0.00 | 60 | 1018.3 |
| 20260510123503 | 11 | 2 | 3.2 | 9.7 | 0.00 | 0.00 | 0.00 | 61 | 1018.3 |
| 20260510123003 | 11 | 357 | 3.2 | 9.7 | 0.00 | 0.00 | 0.00 | 62 | 1018.3 |
| 20260510122503 | 11 | 2 | 3.2 | 11.3 | 0.00 | 0.00 | 0.00 | 62 | 1018.2 |
| 20260510122024 | 11 | 359 | 3.2 | 11.3 | 0.00 | 0.00 | 0.00 | 61 | 1018.0 |
| 20260510121503 | 11 | 350 | 3.2 | 11.3 | 0.00 | 0.00 | 0.00 | 61 | 1018.0 |
| 20260510121003 | 11 | 345 | 4.8 | 11.3 | 0.00 | 0.00 | 0.00 | 60 | 1018.2 |
| 20260510120503 | 11 | 340 | 4.8 | 11.3 | 0.00 | 0.00 | 0.00 | 61 | 1018.0 |
| 20260510120003 | 11 | 341 | 3.2 | 11.3 | 0.00 | 0.00 | 0.00 | 62 | 1018.0 |
| 20260510115504 | 10 | 340 | 3.2 | 11.3 | 0.00 | 0.00 | 0.00 | 61 | 1017.8 |
| 20260510115024 | 10 | 333 | 3.2 | 9.7 | 0.00 | 0.00 | 0.00 | 62 | 1017.7 |
| 20260510114524 | 10 | 340 | 3.2 | 9.7 | 0.00 | 0.00 | 0.00 | 62 | 1017.2 |
| 20260510114003 | 10 | 357 | 1.6 | 6.4 | 0.00 | 0.00 | 0.00 | 62 | 1017.5 |
| 20260510113503 | 10 | 7 | 3.2 | 6.4 | 0.00 | 0.00 | 0.00 | 62 | 1017.1 |
| 20260510113003 | 11 | 5 | 3.2 | 6.4 | 0.00 | 0.00 | 0.00 | 61 | 1017.0 |
| 20260510112503 | 11 | 4 | 3.2 | 9.7 | 0.00 | 0.00 | 0.00 | 61 | 1016.8 |
| 20260510112003 | 10 | 360 | 3.2 | 9.7 | 0.00 | 0.00 | 0.00 | 62 | 1017.0 |
| 20260510111503 | 10 | 359 | 3.2 | 9.7 | 0.00 | 0.00 | 0.00 | 62 | 1016.8 |
| 20260510111024 | 10 | 3 | 3.2 | 6.4 | 0.00 | 0.00 | 0.00 | 63 | 1016.5 |
| 20260510110503 | 11 | 3 | 3.2 | 6.4 | 0.00 | 0.00 | 0.00 | 62 | 1016.7 |
| 20260510110003 | 11 | 2 | 3.2 | 6.4 | 0.00 | 0.00 | 0.00 | 62 | 1016.3 |
| 20260510105524 | 11 | 358 | 3.2 | 6.4 | 0.00 | 0.03 | 0.00 | 62 | 1016.4 |
| 20260510105003 | 11 | 355 | 3.2 | 6.4 | 0.00 | 0.03 | 0.00 | 62 | 1016.5 |
| 20260510104503 | 11 | 4 | 3.2 | 6.4 | 0.00 | 0.03 | 0.00 | 61 | 1016.4 |
| 20260510104003 | 11 | 3 | 3.2 | 9.7 | 0.00 | 0.03 | 0.00 | 61 | 1016.5 |
| 20260510103503 | 11 | 357 | 3.2 | 9.7 | 0.00 | 0.03 | 0.00 | 61 | 1016.3 |
| 20260510103024 | 11 | 357 | 1.6 | 6.4 | 0.00 | 0.03 | 0.00 | 61 | 1016.1 |
| 20260510102503 | 11 | 358 | 3.2 | 9.7 | 0.00 | 0.03 | 0.00 | 61 | 1016.3 |
| 20260510102003 | 11 | 359 | 3.2 | 9.7 | 0.00 | 0.03 | 0.00 | 61 | 1016.0 |
| 20260510101503 | 11 | 5 | 3.2 | 9.7 | 0.00 | 0.03 | 0.00 | 60 | 1015.9 |
| 20260510101003 | 12 | 6 | 3.2 | 6.4 | 0.00 | 0.03 | 0.00 | 61 | 1015.8 |
| 20260510100503 | 12 | 4 | 3.2 | 6.4 | 0.00 | 0.03 | 0.00 | 61 | 1015.7 |
| 20260510100003 | 12 | 5 | 1.6 | 6.4 | 0.00 | 0.03 | 0.00 | 60 | 1015.8 |
| 20260510095503 | 12 | 3 | 1.6 | 9.7 | 0.00 | 0.03 | 0.00 | 60 | 1015.9 |
| 20260510095003 | 12 | 354 | 3.2 | 9.7 | 0.00 | 0.03 | 0.00 | 59 | 1015.6 |
| 20260510094524 | 12 | 341 | 4.8 | 9.7 | 0.00 | 0.03 | 0.00 | 60 | 1015.6 |
| 20260510094003 | 12 | 333 | 4.8 | 9.7 | 0.00 | 0.03 | 0.00 | 61 | 1015.3 |
| 20260510093524 | 12 | 331 | 4.8 | 9.7 | 0.00 | 0.03 | 0.00 | 61 | 1015.5 |
| 20260510093024 | 12 | 323 | 3.2 | 9.7 | 0.00 | 0.03 | 0.00 | 62 | 1015.3 |
| 20260510092503 | 12 | 325 | 3.2 | 11.3 | 0.00 | 0.03 | 0.00 | 62 | 1015.2 |
| 20260510092003 | 12 | 343 | 4.8 | 11.3 | 0.00 | 0.03 | 0.00 | 62 | 1015.1 |
| 20260510091503 | 12 | 349 | 4.8 | 11.3 | 0.00 | 0.03 | 0.00 | 62 | 1014.7 |
| 20260510091003 | 12 | 354 | 3.2 | 6.4 | 0.00 | 0.03 | 0.00 | 63 | 1014.6 |
| 20260510090503 | 12 | 358 | 1.6 | 4.8 | 0.00 | 0.03 | 0.00 | 63 | 1014.3 |
| 20260510090003 | 12 | 355 | 3.2 | 4.8 | 0.00 | 0.03 | 0.00 | 63 | 1014.5 |
| 20260510085503 | 12 | 351 | 3.2 | 11.3 | 0.00 | 0.03 | 0.00 | 63 | 1014.3 |
| 20260510085003 | 12 | 351 | 3.2 | 11.3 | 0.00 | 0.03 | 0.00 | 64 | 1014.5 |
| 20260510084504 | 13 | 346 | 3.2 | 9.7 | 0.00 | 0.03 | 0.00 | 64 | 1014.4 |
| 20260510084003 | 12 | 342 | 3.2 | 9.7 | 0.00 | 0.03 | 0.00 | 64 | 1014.2 |
| 20260510083524 | 12 | 346 | 3.2 | 9.7 | 0.00 | 0.03 | 0.00 | 65 | 1014.4 |
| 20260510083024 | 13 | 354 | 3.2 | 6.4 | 0.00 | 0.03 | 0.00 | 65 | 1014.3 |
| 20260510082503 | 13 | 360 | 3.2 | 4.8 | 0.00 | 0.03 | 0.00 | 65 | 1014.1 |
| 20260510082003 | 13 | 358 | 1.6 | 4.8 | 0.00 | 0.03 | 0.00 | 65 | 1014.0 |
| 20260510081503 | 13 | 349 | 1.6 | 9.7 | 0.00 | 0.03 | 0.00 | 66 | 1013.9 |
| 20260510081003 | 13 | 348 | 3.2 | 9.7 | 0.00 | 0.03 | 0.00 | 67 | 1013.7 |
| 20260510080503 | 13 | 344 | 1.6 | 3.2 | 0.00 | 0.03 | 0.00 | 68 | 1013.7 |
| 20260510080003 | 13 | 342 | 1.6 | 4.8 | 0.00 | 0.03 | 0.00 | 68 | 1013.4 |
| 20260510075503 | 13 | 350 | 1.6 | 4.8 | 0.00 | 0.03 | 0.00 | 68 | 1013.7 |
| 20260510075003 | 13 | 351 | 1.6 | 9.7 | 0.00 | 0.03 | 0.00 | 69 | 1013.6 |
| 20260510074524 | 13 | 349 | 1.6 | 9.7 | 0.00 | 0.03 | 0.00 | 69 | 1013.6 |
| 20260510074003 | 13 | 354 | 3.2 | 9.7 | 0.00 | 0.03 | 0.00 | 69 | 1013.7 |
| 20260510073503 | 13 | 3 | 1.6 | 6.4 | 0.00 | 0.03 | 0.00 | 70 | 1013.6 |
| 20260510073003 | 13 | 5 | 1.6 | 4.8 | 0.00 | 0.03 | 0.00 | 70 | 1013.6 |
| 20260510072524 | 13 | 358 | 1.6 | 4.8 | 0.00 | 0.03 | 0.00 | 70 | 1013.6 |
| 20260510072003 | 13 | 348 | 1.6 | 4.8 | 0.00 | 0.03 | 0.00 | 70 | 1013.6 |
| 20260510071503 | 13 | 341 | 1.6 | 4.8 | 0.00 | 0.03 | 0.00 | 71 | 1013.6 |
| 20260510071024 | 13 | 337 | 1.6 | 4.8 | 0.00 | 0.03 | 0.00 | 72 | 1013.5 |
| 20260510070503 | 13 | 344 | 1.6 | 4.8 | 0.00 | 0.03 | 0.00 | 72 | 1013.5 |
| 20260510070003 | 13 | 353 | 1.6 | 4.8 | 0.00 | 0.03 | 0.00 | 72 | 1013.7 |
| 20260510065503 | 13 | 352 | 1.6 | 4.8 | 0.00 | 0.03 | 0.00 | 73 | 1013.6 |
| 20260510065003 | 13 | 352 | 1.6 | 4.8 | 0.00 | 0.03 | 0.00 | 74 | 1013.6 |
| 20260510064524 | 13 | 353 | 1.6 | 3.2 | 0.00 | 0.03 | 0.00 | 75 | 1013.8 |
| 20260510064003 | 13 | 349 | 1.6 | 4.8 | 0.00 | 0.03 | 0.00 | 77 | 1013.7 |
| 20260510063524 | 13 | 345 | 1.6 | 4.8 | 0.00 | 0.03 | 0.00 | 78 | 1013.7 |
| 20260510063024 | 13 | 349 | 1.6 | 4.8 | 0.00 | 0.03 | 0.00 | 79 | 1013.6 |
| 20260510062503 | 13 | 352 | 1.6 | 3.2 | 0.00 | 0.03 | 0.00 | 79 | 1013.7 |
| 20260510062024 | 13 | 350 | 1.6 | 4.8 | 0.00 | 0.03 | 0.00 | 79 | 1013.6 |
| 20260510061524 | 13 | 352 | 1.6 | 4.8 | 0.00 | 0.03 | 0.00 | 79 | 1013.5 |
| 20260510061024 | 13 | 356 | 1.6 | 3.2 | 0.00 | 0.03 | 0.00 | 79 | 1013.5 |
| 20260510060503 | 13 | 29 | 0.0 | 1.6 | 0.00 | 0.03 | 0.00 | 79 | 1013.7 |
| 20260510060003 | 13 | 0 | 0.0 | 1.6 | 0.00 | 0.03 | 0.00 | 79 | 1013.6 |
| 20260510055503 | 13 | 66 | 0.0 | 1.6 | 0.00 | 0.03 | 0.00 | 79 | 1013.6 |
| 20260510055003 | 13 | 99 | 0.0 | 1.6 | 0.00 | 0.03 | 0.00 | 79 | 1013.5 |
| 20260510054503 | 13 | 146 | 0.0 | 1.6 | 0.00 | 0.03 | 0.00 | 79 | 1013.4 |
| 20260510054003 | 13 | 177 | 0.0 | 1.6 | 0.00 | 0.03 | 0.00 | 78 | 1013.5 |
| 20260510053524 | 13 | 177 | 0.0 | 1.6 | 0.00 | 0.03 | 0.00 | 78 | 1013.5 |
| 20260510053024 | 14 | 177 | 0.0 | 3.2 | 0.00 | 0.03 | 0.00 | 78 | 1013.3 |
| 20260510052503 | 14 | 167 | 0.0 | 3.2 | 0.00 | 0.03 | 0.00 | 77 | 1013.4 |
| 20260510052003 | 14 | 156 | 0.0 | 3.2 | 0.00 | 0.03 | 0.00 | 76 | 1012.8 |
| 20260510051503 | 14 | 0 | 0.0 | 0.0 | 0.00 | 0.03 | 0.00 | 74 | 1012.7 |
| 20260510051024 | 15 | 0 | 0.0 | 0.0 | 0.00 | 0.03 | 0.00 | 74 | 1012.7 |
| 20260510050503 | 15 | 156 | 0.0 | 1.6 | 0.00 | 0.03 | 0.00 | 73 | 1012.8 |
| 20260510050004 | 15 | 156 | 0.0 | 1.6 | 0.00 | 0.03 | 0.00 | 72 | 1012.6 |
| 20260510045503 | 15 | 0 | 0.0 | 0.0 | 0.00 | 0.03 | 0.03 | 71 | 1012.6 |
| 20260510045003 | 16 | 0 | 0.0 | 0.0 | 0.00 | 0.03 | 0.03 | 70 | 1012.8 |
| 20260510044524 | 16 | 148 | 0.0 | 1.6 | 0.00 | 0.03 | 0.03 | 70 | 1012.8 |
| 20260510044003 | 16 | 148 | 0.0 | 1.6 | 0.00 | 0.03 | 0.03 | 70 | 1012.8 |
| 20260510043524 | 16 | 156 | 0.0 | 3.2 | 0.00 | 0.03 | 0.03 | 69 | 1012.7 |
| 20260510043003 | 16 | 167 | 0.0 | 3.2 | 0.00 | 0.03 | 0.03 | 69 | 1012.9 |
| 20260510042503 | 16 | 187 | 0.0 | 3.2 | 0.00 | 0.03 | 0.03 | 68 | 1012.9 |
| 20260510042003 | 16 | 184 | 0.0 | 3.2 | 0.00 | 0.03 | 0.03 | 68 | 1012.9 |
| 20260510041503 | 16 | 196 | 0.0 | 3.2 | 0.00 | 0.03 | 0.03 | 68 | 1012.7 |
| 20260510041024 | 16 | 198 | 0.0 | 3.2 | 0.00 | 0.03 | 0.03 | 67 | 1012.7 |
| 20260510040503 | 16 | 186 | 1.6 | 6.4 | 0.00 | 0.03 | 0.03 | 67 | 1013.0 |
| 20260510040004 | 16 | 182 | 1.6 | 6.4 | 0.00 | 0.03 | 0.03 | 67 | 1012.8 |
| 20260510035503 | 16 | 180 | 1.6 | 6.4 | 0.00 | 0.03 | 0.03 | 68 | 1012.6 |
| 20260510035003 | 17 | 180 | 1.6 | 4.8 | 0.00 | 0.03 | 0.03 | 67 | 1012.6 |
| 20260510034503 | 17 | 186 | 1.6 | 3.2 | 0.00 | 0.03 | 0.03 | 65 | 1012.4 |
| 20260510034003 | 17 | 211 | 1.6 | 4.8 | 0.00 | 0.03 | 0.03 | 65 | 1012.4 |
| 20260510033503 | 17 | 230 | 1.6 | 4.8 | 0.00 | 0.03 | 0.03 | 61 | 1012.2 |
| 20260510033003 | 18 | 284 | 1.6 | 9.7 | 0.00 | 0.03 | 0.03 | 58 | 1012.2 |
| 20260510032503 | 18 | 324 | 1.6 | 9.7 | 0.00 | 0.03 | 0.03 | 58 | 1012.0 |
| 20260510032003 | 18 | 332 | 3.2 | 6.4 | 0.00 | 0.03 | 0.03 | 56 | 1011.7 |
| 20260510031503 | 18 | 350 | 3.2 | 6.4 | 0.00 | 0.03 | 0.03 | 56 | 1011.5 |
| 20260510031003 | 18 | 3 | 3.2 | 6.4 | 0.00 | 0.03 | 0.03 | 56 | 1011.4 |
| 20260510030503 | 18 | 2 | 3.2 | 9.7 | 0.00 | 0.03 | 0.03 | 54 | 1011.4 |
| 20260510030004 | 19 | 355 | 3.2 | 9.7 | 0.00 | 0.03 | 0.03 | 54 | 1011.2 |
| 20260510025503 | 19 | 359 | 3.2 | 12.9 | 0.00 | 0.03 | 0.03 | 53 | 1011.1 |
| 20260510025003 | 19 | 4 | 3.2 | 12.9 | 0.00 | 0.03 | 0.03 | 53 | 1011.1 |
| 20260510024524 | 19 | 5 | 3.2 | 9.7 | 0.00 | 0.03 | 0.03 | 53 | 1010.8 |
| 20260510024003 | 19 | 2 | 3.2 | 9.7 | 0.00 | 0.03 | 0.03 | 53 | 1010.8 |
| 20260510023503 | 19 | 3 | 4.8 | 11.3 | 0.00 | 0.03 | 0.03 | 53 | 1010.3 |
| 20260510023003 | 19 | 4 | 4.8 | 11.3 | 0.00 | 0.03 | 0.03 | 52 | 1010.3 |
| 20260510022503 | 19 | 2 | 4.8 | 11.3 | 0.00 | 0.03 | 0.03 | 53 | 1010.0 |
| 20260510022024 | 18 | 1 | 4.8 | 17.7 | 0.00 | 0.03 | 0.03 | 52 | 1009.9 |
| 20260510021503 | 18 | 5 | 4.8 | 17.7 | 0.00 | 0.03 | 0.03 | 55 | 1009.8 |
| 20260510021024 | 18 | 4 | 4.8 | 11.3 | 0.00 | 0.03 | 0.03 | 58 | 1009.6 |
| 20260510020503 | 17 | 353 | 3.2 | 11.3 | 0.00 | 0.03 | 0.03 | 61 | 1009.2 |
| 20260510020003 | 17 | 308 | 0.0 | 3.2 | 0.00 | 0.03 | 0.03 | 60 | 1008.9 |
| 20260510015503 | 17 | 0 | 0.0 | 0.0 | 0.00 | 0.03 | 0.03 | 58 | 1008.6 |
| 20260510015003 | 18 | 0 | 0.0 | 0.0 | 0.00 | 0.03 | 0.03 | 57 | 1008.2 |
| 20260510014503 | 18 | 0 | 0.0 | 0.0 | 0.00 | 0.03 | 0.03 | 56 | 1008.3 |
| 20260510014003 | 18 | 0 | 0.0 | 0.0 | 0.00 | 0.03 | 0.03 | 55 | 1008.1 |
| 20260510013503 | 18 | 0 | 0.0 | 0.0 | 0.00 | 0.03 | 0.03 | 55 | 1008.1 |
| 20260510013003 | 19 | 0 | 0.0 | 0.0 | 0.00 | 0.03 | 0.03 | 53 | 1007.9 |
| 20260510012503 | 19 | 0 | 0.0 | 0.0 | 0.00 | 0.03 | 0.03 | 52 | 1008.1 |
| 20260510012003 | 19 | 0 | 0.0 | 0.0 | 0.00 | 0.03 | 0.03 | 51 | 1008.2 |
| 20260510011503 | 20 | 0 | 0.0 | 0.0 | 0.00 | 0.03 | 0.03 | 49 | 1008.1 |
| 20260510011003 | 20 | 0 | 0.0 | 0.0 | 0.00 | 0.03 | 0.03 | 49 | 1007.9 |
| 20260510010503 | 21 | 0 | 0.0 | 0.0 | 0.00 | 0.03 | 0.03 | 49 | 1007.9 |
| 20260510010003 | 21 | 0 | 0.0 | 0.0 | 0.00 | 0.03 | 0.03 | 46 | 1008.2 |
| 20260510005503 | 21 | 0 | 0.0 | 0.0 | 0.00 | 0.03 | 0.03 | 46 | 1007.8 |
| 20260510005003 | 21 | 0 | 0.0 | 0.0 | 0.00 | 0.03 | 0.03 | 45 | 1007.8 |
| 20260510004503 | 22 | 0 | 0.0 | 0.0 | 0.00 | 0.03 | 0.03 | 44 | 1007.9 |
| 20260510004024 | 22 | 0 | 0.0 | 0.0 | 0.00 | 0.03 | 0.03 | 44 | 1007.7 |
| 20260510003503 | 22 | 0 | 0.0 | 0.0 | 0.00 | 0.03 | 0.03 | 43 | 1007.8 |
| 20260510003004 | 22 | 0 | 0.0 | 0.0 | 0.00 | 0.03 | 0.03 | 42 | 1007.8 |
| 20260510002503 | 23 | 174 | 0.0 | 3.2 | 0.00 | 0.03 | 0.03 | 41 | 1007.7 |
| 20260510002003 | 23 | 173 | 0.0 | 3.2 | 0.00 | 0.03 | 0.03 | 41 | 1007.6 |
| 20260510001503 | 23 | 165 | 0.0 | 3.2 | 0.00 | 0.03 | 0.03 | 39 | 1007.4 |
| 20260510001003 | 23 | 163 | 1.6 | 3.2 | 0.00 | 0.03 | 0.03 | 40 | 1007.4 |
| 20260510000524 | 24 | 174 | 1.6 | 4.8 | 0.00 | 0.03 | 0.03 | 39 | 1007.4 |
| 20260510000003 | 24 | 191 | 1.6 | 6.4 | 0.00 | 0.03 | 0.03 | 39 | 1007.3 |
| 20260509235503 | 25 | 191 | 1.6 | 6.4 | 0.00 | 0.03 | 0.03 | 38 | 1007.3 |
| 20260509235003 | 25 | 179 | 1.6 | 4.8 | 0.00 | 0.03 | 0.03 | 38 | 1007.2 |
| 20260509234503 | 25 | 178 | 1.6 | 4.8 | 0.00 | 0.03 | 0.03 | 38 | 1007.4 |
| 20260509234003 | 25 | 189 | 1.6 | 9.7 | 0.00 | 0.03 | 0.03 | 37 | 1007.4 |
| 20260509233524 | 25 | 277 | 1.6 | 9.7 | 0.00 | 0.03 | 0.03 | 36 | 1007.6 |
| 20260509233003 | 26 | 288 | 1.6 | 6.4 | 0.00 | 0.03 | 0.03 | 36 | 1007.5 |
| 20260509232503 | 26 | 288 | 1.6 | 6.4 | 0.00 | 0.03 | 0.03 | 36 | 1007.6 |
| 20260509232003 | 26 | 300 | 3.2 | 9.7 | 0.00 | 0.03 | 0.03 | 36 | 1007.5 |
| 20260509231503 | 26 | 279 | 3.2 | 11.3 | 0.00 | 0.03 | 0.03 | 35 | 1007.5 |
| 20260509231003 | 26 | 252 | 3.2 | 11.3 | 0.00 | 0.03 | 0.03 | 35 | 1007.6 |
| 20260509230503 | 26 | 253 | 1.6 | 6.4 | 0.00 | 0.03 | 0.03 | 35 | 1007.4 |
| 20260509230003 | 26 | 224 | 1.6 | 12.9 | 0.00 | 0.03 | 0.03 | 35 | 1007.5 |
| 20260509225503 | 26 | 234 | 3.2 | 12.9 | 0.00 | 0.03 | 0.03 | 35 | 1007.5 |
| 20260509225003 | 26 | 260 | 3.2 | 12.9 | 0.00 | 0.03 | 0.03 | 34 | 1007.3 |
| 20260509224503 | 26 | 267 | 3.2 | 14.5 | 0.00 | 0.03 | 0.03 | 36 | 1007.3 |
| 20260509224003 | 26 | 282 | 3.2 | 14.5 | 0.00 | 0.05 | 0.03 | 35 | 1007.2 |
| 20260509223503 | 26 | 316 | 3.2 | 11.3 | 0.00 | 0.05 | 0.03 | 35 | 1007.2 |
| 20260509223003 | 26 | 309 | 4.8 | 14.5 | 0.00 | 0.05 | 0.03 | 35 | 1007.0 |
| 20260509222503 | 26 | 298 | 4.8 | 14.5 | 0.00 | 0.05 | 0.03 | 35 | 1007.3 |
| 20260509222003 | 26 | 283 | 4.8 | 14.5 | 0.00 | 0.05 | 0.03 | 35 | 1007.2 |
| 20260509221503 | 26 | 281 | 3.2 | 11.3 | 0.00 | 0.05 | 0.03 | 35 | 1007.2 |
| 20260509221003 | 26 | 302 | 3.2 | 9.7 | 0.00 | 0.05 | 0.03 | 35 | 1007.0 |
| 20260509220503 | 26 | 313 | 4.8 | 14.5 | 0.00 | 0.05 | 0.03 | 35 | 1006.9 |
| 20260509220003 | 27 | 320 | 4.8 | 14.5 | 0.00 | 0.05 | 0.03 | 34 | 1007.1 |
| 20260509215503 | 27 | 301 | 4.8 | 16.1 | 0.00 | 0.08 | 0.03 | 35 | 1006.9 |
| 20260509215003 | 27 | 316 | 4.8 | 16.1 | 0.00 | 0.10 | 0.03 | 36 | 1006.9 |
| 20260509214503 | 27 | 328 | 4.8 | 14.5 | 0.00 | 0.13 | 0.03 | 35 | 1007.2 |
| 20260509214003 | 27 | 266 | 4.8 | 11.3 | 0.00 | 0.13 | 0.03 | 36 | 1007.1 |
| 20260509213503 | 27 | 280 | 6.4 | 20.9 | 0.00 | 0.15 | 0.03 | 36 | 1007.4 |